sat.trackr.live / text

‹ back to catalog

COSMOS 2024 (ETALON 2)

NORAD 20026 · 1989-039C

PAYLOAD ACTIVE UNKNOWN

§ Identity

Operator
Country
CIS
Launch date
1989-05-31
Launch site
TYMSC
Launch vehicle
Mass (kg)
RCS (m²)
1.03

Purposes: science

External: N2YO · Heavens-Above · Gunter

§ Orbital elements

Epoch: 2026-05-23T20:49:29.525376Z

Period
675.41 min
Inclination
64.9506°
Eccentricity
0.0020621
Mean motion
2.13204562 rev/d
Perigee alt
19,069.1 km
Apogee alt
19,174.3 km
Semi-major
25,499.8 km
B*
0.0000e+0
RAAN
311.3730°
Arg perigee
212.6135°
Mean anomaly
323.9566°
Rev number
28,798

§ Raw data

COSMOS 2024 (ETALON 2)1 20026U 89039C   26143.86770284 -.00000043  00000+0  00000+0 0  99932 20026  64.9506 311.3730 0020621 212.6135 323.9566  2.13204562287984

JSON: /api/v1/satellites/20026 · /tle

For live sub-satellite position, see the globe view (requires WebGL).

§ Visibility from observer

Set your observer location to see the next 7 days of passes ≥ 10°. The values pass through the URL so the page stays shareable.

No JS? Fill the form by hand. The geolocation button needs JavaScript.